Location: Six Mile Lake
(44.9000°N, 79.7170°W)
Time: 23:34:17
(UTC-04:00)

AO-109 - Visible Passes

Search period start: 27 June 2022 00:00
Search period end: 07 July 2022 00:00
Orbit: 477 x 502 km, 60.7° (Epoch: 27 June)

Date Brightness Start Highest point End Pass type
(mag) Time Alt. Az. Time Alt. Az. Time Alt. Az.
01 Jul ? 04:54:34 10° SSW 04:58:00 37° SE 05:01:30 10° ENE visible
02 Jul ? 04:30:15 10° S 04:33:36 32° SE 04:36:59 10° ENE visible
03 Jul ? 04:06:36 14° S 04:09:11 29° ESE 04:12:27 10° ENE visible
04 Jul ? 03:42:59 18° SSE 03:44:46 25° ESE 03:47:53 10° ENE visible
05 Jul ? 03:19:18 20° SE 03:20:20 22° ESE 03:23:18 10° ENE visible
05 Jul ? 04:54:05 10° WSW 04:57:37 41° NW 05:01:12 10° NNE visible
06 Jul ? 02:55:34 19° SE 02:55:54 20° ESE 02:58:39 10° ENE visible
06 Jul ? 04:29:59 13° WSW 04:33:06 45° NW 04:36:45 10° NNE visible
